Tracking 17147 objects as of 4-July-2015
HD Live streaming from Space Station

SL-12 R/B(2)

Track SL-12 R/B(2) now!
SL-12 R/B(2) is classified as:


NORAD ID: 24919
Int'l Code: 1997-046D
Perigee: 8,552.1 km
Apogee: 35,837.3 km
Inclination: 13.5 °
Period: 800.8 minutes
Semi major axis: 28565 km
RCS: 29.9426 m2 (large)
Launch date: August 28, 1997
Source: Commonwealth of Independent States (former USSR) (CIS)

Note: This is a ROCKET BODY
Your satellite tracking list
Your tracking list is empty





NASA's NSSDC Master Catalog

Two Line Element Set (TLE):
1 24919U 97046D   15183.15912689 -.00000074  00000-0  00000+0 0  9991
2 24919 013.4908 123.2308 4775869 039.6924 024.7191 01.79819272117212

Source of the keplerian elements: AFSPC

N2YO: 316